Tracking 30923 objects as of 1-Jul-2025
HD Live streaming from Space Station
objects crossing your sky now

DELTA 1 DEB

Track DELTA 1 DEB now!
10-day predictions


NORAD ID: 10823
Int'l Code: 1976-077BT
Perigee: 1,462.0 km
Apogee: 1,533.6 km
Inclination: 101.9 °
Period: 115.8 minutes
Semi major axis: 7868 km
RCS: 0.1533 m2 (medium)
Launch date: July 29, 1976
Source: United States (US)
Launch site: AIR FORCE WESTERN TEST RANGE (AFWTR)

Note: This is SATELLITE DEBRIS
Your satellite tracking list
FLOCK 1C 6
Track 1 satellite(s)




NASA's NSSDC Master Catalog

Two Line Element Set (TLE):
1 10823U 76077BT  25181.82286862  .00000010  00000-0  39172-3 0  9996
2 10823 101.9426 134.6471 0045464 327.2568  90.0297 12.43773985219627
Source of the keplerian elements: AFSPC